Wind_Speed
5 11 13 8 5 3 3 1 2 5 4 6 2 3 2 2 1 3 2 2 5 4 7 8 7 10 12 17 21 24 30 32 30 31 35 37 38 41 44 46 48 49 50 50 50 50 51 52 52 53 53 53 53 52 51 49 46 46 46 46 46 44 42
8 19 15 6 10 8 2 2 5 4 1 3 3 1 2 2 1 3 2 2 4 3 4 7 7 9 10 14 18 20 25 29 30 33 37 40 41 43 44 45 46 48 49 51 51 50 51 52 53 54 54 53 53 52 51 50 48 47 47 47 47 46 44
9 18 10 6 15 14 7 4 6 2 1 0 1 1 2 1 1 3 4 3 3 3 5 6 6 10 10 10 16 17 16 22 29 34 38 41 42 41 41 43 43 45 48 50 51 51 51 51 52 53 53 53 52 52 51 50 49 47 46 46 46 47 46
7 8 5 4 10 13 11 10 8 3 1 4 2 2 4 2 2 2 3 4 3 4 5 6 7 8 10 6 13 15 16 24 31 35 36 38 40 40 41 43 44 46 49 51 53 53 51 51 51 52 52 52 52 52 52 51 49 47 45 45 46 47 48
5 2 4 5 5 8 9 8 7 7 5 1 1 2 3 3 3 2 0 2 4 4 4 8 10 10 11 7 14 14 16 27 35 36 38 39 40 42 43 43 45 47 49 51 52 53 52 51 50 51 51 52 52 52 51 51 50 49 47 46 46 47 48
3 2 4 6 5 4 1 2 6 7 7 4 2 3 3 2 3 4 3 3 4 5 5 8 9 11 13 6 13 17 21 32 37 36 39 42 44 44 43 43 45 47 49 50 50 51 50 49 50 50 51 51 51 51 52 51 51 50 49 47 46 46 47
5 3 4 4 5 2 4 5 7 6 6 6 3 3 4 2 1 1 3 3 4 5 7 9 10 13 18 16 5 5 15 26 34 38 41 44 46 47 46 44 45 46 48 49 49 49 49 49 50 51 51 51 51 51 52 51 51 51 50 47 46 45 45
5 2 3 1 7 7 5 5 8 7 6 7 5 5 3 2 3 3 1 3 3 6 10 10 12 18 23 25 24 17 10 5 9 26 37 42 45 45 45 44 43 44 46 46 47 48 48 49 50 51 51 51 51 51 51 51 52 51 50 48 47 46 45
6 5 3 4 8 8 4 4 8 8 9 12 9 4 1 2 2 2 1 2 3 6 10 11 12 18 20 23 30 27 22 19 8 10 23 32 37 38 39 40 39 40 42 44 47 49 50 49 49 51 51 50 50 50 51 51 51 51 50 49 48 48 46
5 2 3 4 6 7 5 5 9 10 11 13 9 4 3 2 2 3 1 1 5 8 12 13 11 14 16 21 31 31 29 28 15 5 19 26 28 32 36 39 40 41 43 46 48 50 50 50 48 49 50 50 50 50 50 51 50 50 49 49 48 48 48
5 4 1 3 6 8 8 9 10 9 9 11 8 3 2 2 5 5 2 1 7 11 13 13 10 12 13 17 24 28 33 36 28 13 10 13 12 14 19 24 29 33 37 42 46 49 51 51 50 48 49 50 50 50 49 49 49 49 49 48 48 48 47
6 6 5 6 7 10 10 11 11 9 8 10 7 4 4 3 4 5 3 3 7 10 11 11 9 10 10 13 20 26 30 33 34 34 30 26 23 19 14 10 7 11 18 25 32 38 44 48 49 49 49 49 49 49 49 48 48 48 48 48 47 47 47
6 6 6 6 7 10 10 9 9 9 9 8 7 7 8 6 3 6 6 7 6 7 8 10 10 9 9 13 17 24 30 30 32 36 36 35 35 32 29 28 23 16 8 8 14 21 28 34 40 43 45 47 48 47 47 47 47 46 46 47 46 46 47
6 7 8 8 8 10 10 9 8 8 9 9 9 9 10 9 7 8 5 6 5 5 5 7 9 10 13 19 23 24 28 28 30 34 32 32 35 33 32 31 29 27 23 14 7 10 15 20 27 32 36 40 43 46 46 45 45 45 44 45 46 45 46
5 6 7 9 10 11 12 9 6 7 9 9 9 8 8 8 8 7 4 5 4 5 5 7 12 16 18 21 22 22 24 26 27 30 31 31 33 32 30 29 28 29 29 23 15 8 9 13 17 21 27 31 34 38 42 43 43 44 43 43 44 45 45
4 3 7 11 12 12 11 6 2 4 7 8 8 7 7 7 7 7 5 2 1 5 6 8 13 17 18 18 17 17 21 25 26 26 28 30 32 32 30 28 27 26 26 24 20 14 6 8 12 12 16 24 29 30 33 39 42 42 43 43 43 44 44
3 3 6 9 9 9 8 4 0 4 6 8 7 4 5 6 5 3 2 2 2 5 7 6 10 12 12 15 18 18 20 23 23 24 26 28 29 30 28 26 25 24 22 21 20 18 12 7 8 11 10 16 27 31 30 33 38 40 42 43 43 44 43
2 4 5 6 5 5 6 3 4 6 6 6 5 5 7 9 7 3 1 1 4 6 7 6 6 8 10 14 17 19 23 26 23 23 27 30 30 29 26 24 23 21 19 16 15 14 13 10 4 6 10 11 20 32 33 31 34 38 41 42 42 43 44
1 2 5 4 4 5 5 5 8 8 6 3 4 6 8 11 11 8 6 7 8 8 10 11 6 8 12 17 22 23 26 28 26 23 27 31 31 30 29 26 23 21 18 13 11 10 7 7 14 6 6 9 14 26 32 32 34 37 40 42 43 44 46
1 1 2 1 5 7 10 8 7 8 6 5 4 4 6 9 10 9 8 8 9 11 13 17 15 3 6 12 25 28 26 28 28 25 25 27 29 29 29 28 26 23 20 13 8 7 5 7 14 12 4 6 10 17 24 28 32 35 38 41 43 45 47
2 2 3 3 6 10 10 5 2 4 3 4 5 3 2 6 8 9 8 7 10 15 16 20 25 17 4 3 17 28 29 28 27 25 24 24 26 27 26 27 26 22 20 16 10 8 9 9 11 10 3 5 6 9 18 24 28 31 34 39 42 44 46
2 3 3 3 4 6 3 1 4 8 9 8 7 4 1 4 11 13 9 7 9 14 17 21 25 19 4 2 9 24 30 29 28 25 24 23 24 25 26 27 27 24 21 19 14 9 10 9 10 11 9 9 6 4 11 18 24 28 31 36 40 43 44
2 3 3 3 5 4 2 3 8 16 19 16 9 3 1 5 16 19 12 7 8 11 15 19 17 12 5 1 10 22 27 27 28 27 24 22 22 23 25 25 27 27 25 21 17 14 12 9 8 11 10 9 9 5 4 9 16 23 29 33 37 42 44
3 4 4 4 4 2 3 5 11 18 19 14 5 2 1 8 20 24 15 9 10 11 13 15 11 5 3 5 14 23 24 23 25 26 25 23 20 21 23 24 24 26 26 24 21 20 18 12 10 11 10 10 12 11 8 8 11 17 24 30 33 37 41
5 5 5 4 3 1 4 9 15 18 14 6 2 3 3 10 20 22 15 10 11 13 13 12 8 6 9 13 17 21 21 21 24 25 25 23 19 18 20 22 23 25 26 25 24 23 23 19 13 12 12 13 15 15 13 13 13 14 17 22 25 28 33
2 3 4 5 3 1 7 14 15 11 5 3 2 5 11 15 17 18 14 10 10 12 13 13 12 13 16 18 18 19 20 21 23 25 26 25 20 17 17 19 22 25 26 26 27 27 27 23 17 13 13 15 17 19 19 19 17 16 16 18 20 22 26
0 2 3 4 3 2 11 13 8 5 1 4 8 14 17 16 15 15 14 12 11 12 14 15 16 18 19 19 19 19 20 21 22 24 26 26 24 20 18 18 20 24 26 27 28 30 30 28 21 15 14 16 18 22 24 23 21 20 20 19 20 21 24
1 2 3 1 2 4 9 7 3 5 9 12 14 15 15 16 16 15 15 15 14 15 16 17 18 19 20 21 19 19 20 21 22 23 24 26 26 22 19 17 18 20 23 25 26 28 30 30 25 19 16 18 20 22 24 24 23 22 22 22 23 24 25
2 4 6 5 6 7 7 8 9 12 13 12 12 13 16 18 18 17 18 18 17 16 17 18 19 20 21 21 20 18 20 22 23 23 23 25 27 23 19 18 16 16 20 23 24 25 27 29 29 24 19 20 23 24 24 24 23 23 24 25 26 27 28
4 7 11 11 9 9 12 13 10 8 9 12 15 18 20 21 21 21 21 20 19 18 17 17 19 20 21 22 21 21 21 22 22 23 23 25 26 23 19 18 17 16 17 20 21 23 24 26 29 28 23 21 24 26 26 25 25 25 26 27 29 29 30
2 3 5 4 6 13 18 14 8 8 13 17 19 21 24 25 25 24 22 21 21 19 17 17 18 19 20 22 23 23 23 22 22 22 24 25 25 23 19 18 18 17 18 19 20 22 24 25 28 30 28 23 22 25 27 27 27 27 28 30 31 30 30
2 5 7 7 14 19 13 6 8 15 19 22 24 25 26 26 25 24 22 22 23 22 20 18 18 19 20 20 22 23 24 23 22 22 24 25 24 22 19 18 18 18 19 19 20 22 24 26 27 30 32 29 26 25 27 28 29 30 30 31 32 31 30
4 7 8 9 13 12 5 5 14 21 21 22 26 27 26 25 25 25 24 24 23 23 22 21 20 21 21 20 21 22 22 23 23 24 25 24 22 21 20 18 17 19 19 19 19 21 23 25 27 28 31 33 30 27 27 29 31 32 33 33 34 32 30
4 5 4 4 4 5 9 14 20 21 20 22 24 25 25 25 25 26 27 27 25 24 24 23 22 23 23 21 21 21 21 22 23 25 25 23 20 20 20 19 17 17 18 17 18 19 21 22 24 25 28 30 30 29 29 31 33 35 35 34 34 34 32
6 8 9 7 6 9 14 18 19 18 19 20 21 23 25 25 25 26 27 28 28 27 26 25 24 25 25 24 24 23 22 21 22 23 24 22 20 20 21 20 17 17 17 17 17 18 20 21 21 22 24 26 28 29 30 31 33 35 36 35 35 35 33
10 12 13 11 10 12 15 16 17 17 17 18 20 23 24 25 25 25 26 27 28 28 28 27 25 25 27 27 26 26 25 22 21 22 23 22 20 20 20 20 18 17 18 18 18 18 20 22 22 22 22 23 25 28 30 32 34 36 36 36 36 35 34
11 12 12 11 12 14 14 15 16 16 16 18 21 23 23 23 24 25 26 27 27 27 28 29 28 26 27 28 28 27 26 23 20 21 23 22 21 19 19 19 17 17 19 19 18 18 19 22 23 23 23 23 24 27 29 32 34 36 36 36 35 35 34
Wind_Direction
53 10 338 345 14 300 268 23 170 217 184 137 153 257 239 135 166 282 267 252 289 303 293 283 236 218 212 206 208 203 203 201 191 192 197 198 200 200 201 202 201 200 198 197 196 196 197 198 199 200 201 202 204 205 207 209 211 214 216 217 219 218 214
12 355 338 351 16 15 57 290 265 260 23 109 124 284 322 61 164 269 262 223 289 314 292 292 271 245 223 203 207 208 202 194 188 193 197 198 200 201 201 203 202 201 200 199 198 197 198 199 200 201 203 204 205 207 208 209 211 213 216 218 219 220 217
348 349 357 5 357 10 41 337 311 339 45 219 41 140 204 141 164 268 290 264 260 233 242 292 287 263 254 210 202 208 196 188 191 195 197 198 199 199 200 202 203 202 201 201 200 200 200 200 201 202 203 204 206 207 209 210 213 215 216 218 219 221 220
356 346 26 28 342 351 9 2 353 355 217 195 201 195 180 162 176 221 307 316 284 240 252 313 324 292 290 245 201 205 194 189 194 196 196 196 196 197 199 200 202 203 202 202 202 202 201 201 202 203 204 205 206 208 209 210 213 215 216 218 220 221 221
21 41 33 31 357 346 350 354 0 350 326 275 146 244 186 143 156 182 230 279 280 297 322 332 332 325 316 250 200 201 195 193 197 196 193 192 193 197 199 198 200 203 203 203 203 203 203 202 203 203 204 206 207 208 209 210 211 213 214 217 219 220 221
21 87 5 337 322 313 310 5 11 360 339 350 11 299 272 141 158 181 175 211 276 314 347 340 330 339 341 293 206 199 195 194 198 197 193 192 194 196 197 198 200 201 202 203 203 203 203 202 203 204 205 206 207 208 210 211 211 212 214 217 218 220 221
275 256 256 296 326 346 99 58 17 360 354 7 12 284 290 310 292 229 176 192 257 305 349 352 347 3 8 6 10 193 199 197 197 196 193 192 195 196 197 197 199 201 202 202 202 202 202 203 203 204 205 206 207 209 210 211 211 213 215 217 218 220 221
295 274 194 73 38 46 61 31 3 357 352 343 311 259 266 321 350 349 225 200 270 325 344 347 357 16 20 19 24 29 19 2 205 200 196 194 196 196 196 196 198 200 201 201 201 201 201 203 204 205 206 207 208 209 210 211 212 214 215 216 217 219 221
330 10 35 8 18 28 26 343 339 343 341 339 327 296 327 54 36 353 187 201 278 312 331 335 359 21 25 22 24 25 20 14 10 205 200 197 197 194 193 195 197 198 199 200 200 201 201 202 204 206 206 207 208 209 211 212 213 214 215 216 216 218 220
287 321 40 352 332 339 338 320 328 339 348 346 335 326 9 24 332 333 121 212 297 310 332 339 360 22 28 27 22 21 21 22 28 191 208 207 203 199 196 197 198 199 200 201 202 201 201 201 203 205 207 208 208 210 211 213 214 214 215 216 216 217 219
244 252 233 284 293 300 304 312 321 331 341 337 329 340 8 336 321 319 177 136 330 328 333 340 360 17 28 33 23 20 25 27 37 70 159 186 186 191 196 199 202 203 203 204 204 203 202 202 203 205 207 207 208 209 211 212 214 215 215 215 216 217 218
243 254 264 283 294 294 297 305 309 315 324 324 323 321 303 318 337 301 263 4 344 325 329 344 4 12 25 36 24 19 25 30 39 58 74 79 74 72 74 82 138 186 202 208 209 208 207 206 206 207 208 208 209 210 210 212 214 215 215 215 215 217 218
289 292 308 309 299 289 287 290 290 299 310 307 307 306 300 310 300 261 294 343 335 322 344 360 10 17 32 47 38 22 19 26 37 49 58 60 59 60 57 55 62 76 102 180 207 213 214 213 211 210 210 210 210 210 210 211 213 215 215 215 215 217 218
316 324 322 313 315 307 296 288 279 281 287 284 288 293 291 291 270 256 303 352 337 336 10 9 7 23 41 52 54 35 14 14 30 39 43 46 50 52 49 47 49 54 62 81 134 188 205 214 217 216 215 213 211 211 211 211 212 214 215 215 216 217 219
315 324 324 324 332 322 309 307 299 282 275 273 277 277 279 288 280 278 334 17 339 331 15 29 20 28 39 44 50 46 25 13 21 31 32 34 41 43 41 40 42 44 51 63 80 115 176 199 208 215 218 217 213 212 212 211 211 213 214 215 216 218 220
304 321 340 333 331 322 310 302 295 289 279 270 267 261 264 277 281 293 329 20 249 310 349 33 36 33 38 39 38 45 42 29 24 28 26 25 30 33 32 32 36 39 43 50 59 68 104 179 191 199 213 217 215 214 214 213 213 213 214 215 216 218 220
296 332 347 335 335 330 302 255 209 345 318 300 290 286 302 312 313 305 285 219 236 319 342 22 46 36 35 41 36 35 46 42 30 27 25 21 22 27 26 23 25 30 34 40 50 62 80 125 182 196 212 221 216 214 216 216 215 214 214 216 217 217 219
291 326 356 346 328 297 263 260 351 346 328 329 353 19 9 2 8 17 111 56 358 357 357 6 51 64 57 53 42 34 40 44 35 25 23 20 18 21 23 21 22 25 29 35 42 61 88 87 81 197 222 246 227 218 218 218 217 218 217 217 218 219 220
261 340 22 353 273 249 269 318 337 328 321 3 55 53 25 11 8 3 13 26 12 360 354 351 20 105 94 62 45 33 31 35 31 23 22 19 15 12 13 16 20 23 28 36 37 47 78 50 27 45 201 246 244 225 222 221 221 222 222 222 222 223 225
208 43 72 238 256 284 304 318 336 345 353 7 29 47 22 6 3 357 356 4 2 357 353 351 355 5 142 69 40 28 23 24 21 16 17 18 14 9 6 8 11 14 19 26 23 13 357 343 8 32 124 225 250 230 221 220 220 221 225 227 228 229 230
159 159 200 253 301 307 305 307 358 17 15 346 337 326 333 354 353 350 353 360 359 357 354 354 356 347 256 131 31 15 9 10 10 6 5 8 10 7 2 2 4 5 6 10 7 343 327 330 352 5 344 273 271 227 214 219 220 220 223 227 232 235 236
141 167 223 289 295 285 292 334 337 338 336 326 316 286 225 354 345 343 351 7 6 359 353 354 359 1 356 171 7 0 356 355 357 358 358 357 357 358 357 355 354 354 356 1 2 341 318 321 340 340 315 284 276 215 208 224 228 227 226 226 230 236 238
142 164 211 241 239 245 319 349 327 331 335 333 325 299 173 343 337 337 341 357 12 11 359 356 3 16 33 308 334 347 349 347 348 350 353 354 350 347 349 350 348 346 345 346 345 337 324 305 307 324 313 274 266 273 248 243 244 243 238 233 233 237 240
198 193 213 231 238 261 349 343 326 327 336 345 338 262 246 331 330 331 333 346 5 12 6 4 11 26 12 315 322 336 341 342 343 345 348 352 349 341 341 346 346 341 337 335 332 331 331 319 295 300 299 267 261 274 281 278 277 267 255 248 247 247 246
222 220 230 255 264 280 340 337 332 329 331 337 200 218 298 319 320 323 329 343 358 3 4 3 360 341 332 325 322 330 336 338 338 340 343 346 348 344 339 340 342 337 330 327 324 322 326 327 311 294 287 268 259 264 267 271 282 285 274 266 264 261 256
235 217 230 264 256 351 350 338 339 346 333 232 214 317 317 313 315 323 331 338 347 349 346 342 333 324 324 325 324 327 335 336 332 333 340 344 345 346 341 336 335 334 330 324 319 314 317 322 319 304 287 271 262 262 263 265 274 284 284 276 272 270 267
257 226 238 254 236 349 356 348 353 31 38 268 309 322 316 315 326 333 334 338 342 337 330 325 322 321 321 322 323 325 329 330 327 328 336 344 346 347 346 337 329 328 328 326 318 312 311 315 317 309 291 277 267 262 260 262 269 276 279 277 273 271 269
146 219 220 189 217 310 346 354 310 299 305 303 313 319 315 320 329 332 331 334 336 335 330 322 318 318 319 319 320 321 323 323 322 323 331 339 343 346 349 345 334 324 323 324 321 312 307 308 311 307 293 283 275 266 263 266 271 274 276 276 274 271 268
235 244 258 288 298 298 325 336 314 308 313 317 323 325 321 320 323 325 325 324 327 331 331 325 319 316 317 317 314 314 318 319 317 318 323 331 336 340 345 348 344 330 320 321 322 316 307 303 304 303 294 285 280 275 272 274 277 280 281 279 274 270 267
287 269 264 278 295 306 321 328 319 309 317 323 325 324 320 316 316 316 316 315 319 322 321 321 320 316 316 317 312 309 312 315 313 314 318 324 329 333 341 348 350 343 329 321 321 320 312 304 302 302 298 287 279 278 278 278 280 283 285 283 277 272 268
341 284 256 264 313 316 318 318 301 289 306 315 317 315 313 311 309 308 308 309 311 311 309 311 313 311 311 312 311 310 309 308 309 312 315 319 322 328 337 346 350 350 341 329 324 323 319 312 305 303 301 294 282 276 277 281 283 284 284 283 280 276 272
201 260 269 289 309 311 309 301 306 315 316 312 308 307 307 308 305 303 304 304 303 304 305 303 302 303 305 306 308 310 309 305 304 307 311 314 317 323 333 343 348 351 347 338 331 330 326 319 311 306 304 300 292 280 276 279 282 282 280 280 279 278 277
265 277 287 307 318 315 282 268 309 319 316 308 303 302 303 305 305 304 302 300 299 300 301 300 297 296 297 299 303 306 307 305 302 302 307 311 313 318 328 338 348 352 352 345 341 339 333 324 315 309 305 302 297 289 281 279 281 281 280 279 278 278 279
271 251 260 304 320 286 273 293 309 314 313 311 308 305 304 304 304 304 302 300 298 297 296 297 296 293 293 295 298 298 300 301 300 300 304 308 310 315 323 333 345 353 355 352 349 347 342 333 322 313 307 303 299 293 285 281 282 283 282 281 280 279 280
238 237 251 265 260 265 283 302 311 313 316 317 311 305 303 301 299 299 299 299 299 297 295 294 292 291 291 291 292 292 291 291 295 296 298 302 306 310 318 328 341 353 356 355 353 351 349 344 334 322 313 307 301 295 288 284 282 283 284 283 281 279 279
243 254 260 256 255 272 293 307 312 314 319 319 310 303 299 295 294 294 292 293 295 295 295 293 288 286 286 286 287 289 286 285 290 292 292 296 301 304 309 321 335 350 356 355 355 354 352 351 346 334 321 312 303 297 292 287 284 283 283 283 281 279 279
248 258 256 251 259 277 296 308 309 311 317 318 313 307 301 294 293 291 289 289 291 290 290 290 285 281 281 282 283 284 282 281 285 288 288 291 295 297 303 313 328 344 351 352 353 352 351 355 355 345 331 319 308 299 293 289 286 284 283 282 279 278 278
Height
1476 1479 1475 1473 1479 1481 1475 1475 1479 1478 1472 1477 1490 1496 1489 1492 1508 1503 1488 1484 1475 1466 1459 1447 1446 1451 1449 1450 1450 1450 1454 1457 1463 1467 1468 1472 1475 1477 1480 1482 1484 1487 1490 1493 1496 1499 1501 1504 1507 1509 1512 1515 1518 1521 1524 1528 1531 1534 1536 1539 1541 1544 1547
1477 1477 1474 1471 1475 1477 1481 1484 1479 1471 1471 1476 1486 1498 1498 1503 1515 1503 1487 1487 1483 1480 1473 1453 1446 1450 1449 1449 1448 1446 1449 1453 1457 1460 1462 1466 1469 1472 1476 1479 1482 1486 1488 1491 1493 1496 1498 1500 1503 1506 1509 1512 1515 1518 1521 1524 1527 1530 1533 1536 1539 1542 1544
1483 1475 1475 1479 1476 1475 1483 1486 1476 1476 1487 1490 1490 1500 1505 1510 1517 1506 1490 1487 1485 1483 1475 1459 1454 1453 1447 1447 1446 1445 1448 1450 1452 1454 1456 1460 1464 1469 1474 1476 1480 1483 1485 1488 1491 1493 1496 1498 1501 1504 1507 1510 1513 1516 1518 1521 1524 1527 1530 1533 1536 1539 1541
1488 1481 1486 1498 1495 1482 1480 1483 1480 1480 1487 1489 1490 1493 1496 1503 1513 1509 1500 1493 1485 1478 1471 1463 1461 1456 1449 1448 1446 1442 1443 1444 1446 1449 1452 1457 1461 1465 1468 1471 1476 1479 1481 1484 1487 1491 1494 1496 1499 1502 1505 1508 1510 1513 1516 1519 1522 1525 1528 1530 1532 1535 1538
1492 1496 1499 1505 1506 1498 1494 1495 1497 1496 1490 1484 1486 1487 1485 1493 1504 1507 1508 1502 1487 1476 1471 1466 1462 1455 1447 1443 1440 1437 1437 1438 1441 1444 1447 1452 1456 1459 1463 1466 1470 1474 1478 1481 1484 1488 1491 1494 1498 1500 1502 1505 1507 1510 1513 1516 1519 1522 1524 1526 1529 1532 1535
1502 1505 1502 1499 1501 1502 1503 1505 1507 1508 1503 1497 1500 1498 1486 1483 1491 1495 1500 1499 1489 1479 1472 1466 1461 1454 1443 1434 1431 1430 1431 1433 1437 1440 1443 1447 1450 1454 1458 1462 1466 1470 1474 1478 1482 1486 1489 1493 1495 1498 1500 1502 1505 1507 1510 1513 1516 1518 1520 1523 1525 1529 1532
1504 1504 1500 1498 1499 1497 1498 1505 1508 1508 1507 1507 1514 1513 1498 1488 1488 1485 1485 1492 1490 1478 1469 1466 1461 1454 1445 1437 1431 1430 1431 1432 1433 1435 1439 1442 1446 1449 1453 1458 1462 1466 1470 1475 1479 1483 1486 1489 1492 1495 1497 1499 1502 1504 1507 1510 1512 1515 1518 1520 1523 1526 1529
1498 1497 1496 1494 1496 1499 1505 1510 1509 1508 1509 1510 1511 1509 1502 1499 1499 1494 1492 1496 1491 1475 1466 1466 1462 1454 1450 1444 1438 1436 1437 1437 1436 1437 1439 1441 1444 1447 1451 1456 1460 1464 1468 1472 1476 1479 1482 1486 1489 1491 1494 1496 1499 1502 1504 1507 1509 1512 1515 1518 1521 1523 1525
1508 1504 1506 1505 1503 1507 1517 1519 1513 1511 1510 1509 1506 1502 1500 1502 1505 1505 1507 1508 1497 1479 1470 1467 1462 1457 1453 1450 1446 1444 1442 1440 1440 1442 1443 1444 1446 1448 1452 1456 1460 1464 1467 1470 1473 1475 1478 1481 1485 1488 1491 1494 1497 1499 1501 1503 1506 1509 1513 1515 1518 1520 1523
1531 1526 1531 1532 1525 1520 1521 1520 1516 1513 1512 1511 1510 1509 1509 1510 1508 1506 1510 1512 1500 1483 1474 1470 1465 1461 1457 1454 1453 1449 1446 1443 1440 1441 1446 1449 1451 1453 1454 1456 1458 1461 1463 1465 1468 1471 1474 1478 1481 1485 1488 1491 1494 1496 1499 1501 1504 1507 1510 1512 1515 1518 1521
1536 1535 1537 1535 1531 1527 1524 1521 1519 1516 1514 1514 1513 1515 1515 1513 1510 1506 1507 1507 1499 1486 1479 1474 1471 1468 1463 1460 1459 1455 1451 1447 1443 1442 1447 1452 1456 1459 1460 1460 1462 1463 1464 1466 1467 1469 1472 1474 1478 1481 1484 1488 1491 1494 1496 1499 1502 1504 1507 1509 1512 1515 1518
1530 1530 1531 1528 1527 1527 1524 1522 1520 1517 1515 1514 1515 1517 1514 1511 1513 1510 1502 1501 1499 1491 1484 1479 1476 1475 1470 1468 1468 1465 1460 1457 1453 1449 1450 1454 1459 1462 1464 1466 1466 1467 1469 1471 1473 1475 1475 1476 1477 1479 1482 1485 1488 1491 1494 1496 1499 1502 1504 1507 1510 1512 1515
1528 1526 1526 1526 1525 1524 1521 1521 1520 1516 1515 1515 1515 1515 1510 1509 1513 1509 1500 1499 1499 1493 1487 1483 1479 1478 1476 1475 1475 1473 1470 1466 1461 1456 1455 1458 1461 1463 1466 1468 1468 1469 1470 1472 1475 1478 1479 1481 1481 1481 1483 1484 1487 1489 1492 1495 1497 1500 1502 1505 1508 1510 1513
1530 1527 1525 1524 1523 1523 1520 1519 1517 1514 1513 1512 1511 1510 1506 1505 1506 1502 1499 1500 1498 1493 1489 1486 1482 1480 1477 1474 1474 1477 1478 1474 1467 1463 1462 1463 1463 1465 1468 1469 1470 1471 1470 1471 1473 1475 1477 1480 1482 1484 1485 1486 1487 1489 1490 1493 1496 1498 1501 1503 1506 1508 1510
1532 1528 1525 1523 1524 1525 1522 1519 1516 1513 1510 1508 1508 1507 1504 1503 1502 1498 1498 1501 1498 1492 1488 1487 1486 1482 1477 1473 1474 1478 1483 1481 1475 1470 1467 1466 1466 1467 1469 1470 1471 1471 1470 1470 1471 1473 1475 1477 1480 1483 1485 1487 1488 1490 1491 1493 1495 1497 1500 1501 1504 1506 1508
1535 1529 1527 1526 1524 1521 1519 1518 1516 1513 1510 1507 1503 1501 1499 1500 1500 1498 1500 1502 1499 1493 1489 1488 1487 1485 1482 1480 1479 1482 1484 1483 1481 1478 1474 1472 1470 1469 1470 1471 1471 1471 1471 1470 1471 1473 1475 1477 1479 1481 1484 1486 1488 1490 1492 1493 1494 1496 1498 1500 1502 1504 1506
1535 1530 1529 1528 1526 1525 1520 1514 1512 1513 1511 1506 1501 1499 1498 1498 1497 1498 1501 1501 1497 1493 1491 1489 1488 1487 1487 1486 1485 1486 1486 1483 1484 1483 1480 1477 1475 1473 1473 1473 1472 1472 1472 1471 1472 1472 1474 1477 1479 1480 1483 1485 1485 1486 1489 1492 1493 1495 1496 1498 1500 1502 1504
1536 1532 1528 1529 1533 1532 1520 1508 1507 1511 1511 1508 1506 1507 1505 1500 1497 1497 1498 1497 1496 1495 1493 1491 1491 1490 1490 1489 1488 1488 1486 1484 1485 1484 1480 1478 1478 1477 1478 1477 1475 1473 1472 1472 1472 1472 1473 1477 1479 1479 1482 1484 1484 1484 1485 1488 1491 1493 1494 1496 1497 1499 1500
1536 1532 1532 1538 1538 1526 1511 1505 1506 1507 1507 1506 1507 1509 1507 1503 1499 1497 1497 1497 1497 1496 1493 1492 1492 1491 1490 1489 1487 1486 1485 1484 1485 1485 1482 1479 1478 1478 1479 1478 1476 1474 1473 1473 1473 1472 1472 1475 1478 1479 1481 1483 1484 1483 1483 1484 1487 1489 1491 1492 1494 1495 1496
1535 1536 1540 1541 1530 1513 1506 1507 1507 1506 1507 1508 1508 1509 1509 1506 1503 1500 1499 1498 1497 1495 1493 1490 1489 1490 1489 1487 1484 1485 1485 1485 1486 1486 1485 1483 1481 1480 1480 1478 1475 1474 1474 1474 1475 1473 1472 1474 1477 1478 1478 1480 1481 1482 1482 1483 1484 1486 1488 1489 1491 1492 1492
1535 1538 1539 1534 1525 1516 1510 1509 1509 1510 1513 1513 1512 1512 1511 1508 1506 1504 1502 1499 1497 1494 1492 1489 1487 1486 1485 1485 1485 1485 1485 1486 1488 1487 1485 1484 1483 1483 1482 1481 1478 1476 1475 1475 1474 1473 1472 1473 1475 1475 1475 1477 1478 1479 1481 1481 1482 1483 1485 1486 1487 1488 1489
1533 1536 1537 1536 1534 1527 1515 1511 1511 1510 1511 1511 1510 1511 1512 1510 1508 1506 1504 1502 1500 1496 1492 1489 1486 1483 1484 1488 1490 1489 1487 1486 1487 1487 1486 1485 1483 1482 1482 1481 1478 1476 1475 1474 1474 1473 1472 1472 1473 1475 1475 1475 1476 1477 1478 1478 1480 1481 1481 1483 1485 1486 1486
1533 1536 1539 1538 1533 1523 1514 1513 1512 1509 1509 1507 1505 1508 1513 1511 1508 1506 1504 1502 1501 1499 1496 1492 1488 1487 1491 1494 1493 1492 1491 1489 1487 1487 1486 1486 1484 1483 1482 1481 1478 1476 1474 1474 1474 1474 1475 1475 1477 1479 1478 1475 1474 1475 1475 1476 1477 1478 1479 1481 1483 1484 1485
1531 1533 1535 1532 1524 1517 1515 1515 1512 1509 1508 1505 1506 1513 1516 1511 1507 1506 1504 1502 1501 1499 1498 1496 1492 1493 1496 1496 1493 1493 1494 1492 1490 1488 1486 1485 1485 1483 1482 1481 1479 1477 1475 1473 1472 1472 1474 1476 1478 1480 1479 1474 1471 1472 1473 1474 1475 1476 1478 1480 1481 1482 1483
1531 1531 1532 1527 1520 1516 1516 1514 1511 1509 1507 1507 1512 1518 1515 1511 1508 1506 1504 1503 1501 1499 1499 1497 1496 1496 1495 1494 1492 1492 1492 1491 1489 1488 1486 1485 1484 1482 1481 1480 1478 1477 1475 1472 1471 1471 1472 1474 1475 1476 1475 1472 1469 1469 1470 1472 1474 1475 1477 1478 1479 1479 1479
1532 1530 1530 1527 1521 1517 1516 1514 1510 1509 1510 1511 1514 1513 1511 1511 1509 1506 1505 1504 1502 1500 1499 1498 1497 1496 1494 1492 1490 1489 1489 1488 1487 1486 1485 1483 1482 1480 1480 1479 1477 1474 1472 1470 1469 1468 1469 1471 1472 1473 1472 1471 1469 1468 1468 1470 1472 1473 1474 1474 1474 1474 1474
1532 1532 1531 1528 1523 1517 1515 1514 1512 1511 1513 1513 1511 1509 1509 1509 1508 1507 1506 1505 1503 1502 1500 1498 1497 1496 1494 1492 1490 1488 1487 1486 1485 1483 1482 1481 1479 1477 1476 1475 1474 1472 1470 1469 1468 1467 1466 1467 1469 1470 1470 1469 1468 1467 1466 1467 1469 1469 1470 1470 1470 1469 1469
1532 1532 1527 1522 1519 1517 1516 1517 1516 1514 1513 1512 1511 1509 1508 1506 1506 1507 1506 1505 1504 1503 1501 1498 1497 1495 1494 1493 1491 1489 1488 1486 1484 1482 1480 1479 1477 1475 1473 1472 1471 1470 1470 1469 1468 1467 1466 1465 1466 1467 1468 1466 1465 1465 1464 1464 1465 1464 1464 1465 1465 1465 1464
1529 1527 1521 1517 1517 1517 1516 1516 1515 1514 1512 1511 1511 1510 1507 1505 1505 1505 1504 1503 1503 1503 1501 1499 1497 1495 1493 1493 1491 1490 1489 1487 1484 1482 1480 1478 1477 1475 1473 1471 1469 1468 1467 1467 1467 1467 1465 1463 1463 1464 1464 1463 1461 1461 1461 1461 1460 1460 1460 1460 1459 1459 1459
1526 1522 1518 1517 1517 1516 1515 1515 1514 1513 1512 1510 1509 1508 1506 1504 1503 1502 1501 1501 1500 1500 1500 1499 1496 1495 1493 1491 1490 1490 1489 1487 1485 1482 1480 1478 1476 1475 1473 1471 1469 1467 1466 1465 1465 1464 1462 1460 1459 1459 1460 1460 1458 1457 1457 1457 1456 1455 1455 1454 1453 1453 1454
1527 1522 1517 1516 1516 1515 1514 1514 1513 1511 1510 1509 1507 1506 1504 1502 1500 1499 1498 1497 1497 1497 1497 1496 1495 1493 1491 1490 1488 1487 1487 1486 1484 1482 1479 1477 1475 1474 1472 1470 1468 1466 1465 1464 1463 1461 1458 1456 1455 1454 1455 1455 1455 1454 1453 1452 1451 1451 1450 1449 1448 1448 1448
1525 1521 1516 1515 1515 1513 1512 1512 1511 1510 1509 1506 1505 1503 1501 1499 1497 1496 1495 1494 1493 1492 1492 1492 1491 1490 1489 1489 1487 1484 1483 1482 1481 1480 1478 1476 1474 1472 1470 1468 1466 1464 1463 1461 1460 1457 1454 1452 1452 1452 1450 1450 1451 1450 1449 1448 1447 1445 1444 1443 1443 1442 1443
1522 1518 1515 1514 1513 1511 1510 1510 1510 1509 1508 1505 1503 1500 1498 1496 1494 1492 1491 1490 1490 1489 1488 1488 1487 1485 1485 1485 1485 1483 1481 1479 1478 1477 1476 1474 1473 1470 1468 1466 1464 1462 1461 1459 1456 1453 1451 1449 1449 1449 1447 1446 1446 1445 1444 1443 1441 1439 1438 1438 1438 1438 1438
1521 1516 1513 1513 1513 1511 1509 1508 1507 1506 1505 1503 1500 1497 1495 1493 1491 1489 1487 1486 1485 1485 1485 1484 1483 1481 1480 1480 1481 1480 1479 1477 1476 1474 1473 1472 1471 1469 1467 1465 1463 1461 1459 1457 1454 1452 1450 1449 1448 1447 1445 1443 1442 1441 1440 1438 1436 1434 1434 1434 1433 1433 1434
1514 1511 1510 1511 1511 1509 1507 1506 1505 1503 1502 1500 1497 1494 1492 1490 1488 1486 1484 1482 1481 1481 1480 1481 1480 1477 1475 1475 1476 1475 1475 1475 1475 1473 1471 1470 1469 1468 1466 1464 1461 1459 1457 1455 1452 1451 1450 1449 1447 1445 1443 1441 1439 1437 1436 1434 1433 1431 1430 1430 1430 1429 1429
1508 1508 1508 1509 1508 1506 1505 1504 1502 1501 1499 1498 1495 1492 1490 1487 1485 1484 1482 1480 1479 1478 1476 1476 1476 1474 1472 1471 1471 1471 1471 1471 1471 1471 1471 1469 1468 1467 1466 1463 1460 1457 1454 1453 1451 1450 1449 1448 1445 1442 1440 1438 1435 1433 1432 1431 1430 1428 1427 1427 1426 1426 1425
1506 1506 1506 1506 1505 1504 1503 1502 1500 1499 1498 1496 1493 1490 1488 1485 1483 1481 1479 1478 1477 1476 1474 1472 1472 1471 1469 1468 1467 1467 1466 1466 1467 1467 1467 1467 1466 1465 1463 1462 1459 1455 1452 1451 1450 1449 1448 1446 1442 1439 1436 1434 1432 1429 1428 1427 1427 1425 1425 1424 1423 1422 1422